| time (UTC) | temp F | wind direction | speed knots | gust knots | rain 1hr in | rain 24hr in | rain mn in | humidity % | barometer mb |
| 20260504035512 | 57 | 48 | 18.2 | 26.9 | 0.00 | 0.00 | 0.00 | 34 | 1009.6 |
| 20260504035015 | 58 | 40 | 17.4 | 22.6 | 0.00 | 0.00 | 0.00 | 36 | 1009.4 |
| 20260504034512 | 58 | 36 | 13.9 | 20.0 | 0.00 | 0.00 | 0.00 | 36 | 1009.3 |
| 20260504034012 | 58 | 43 | 7.0 | 9.6 | 0.00 | 0.00 | 0.00 | 37 | 1008.9 |
| 20260504033509 | 59 | 35 | 6.1 | 10.4 | 0.00 | 0.00 | 0.00 | 37 | 1008.8 |
| 20260504033044 | 59 | 19 | 5.2 | 11.3 | 0.00 | 0.00 | 0.00 | 36 | 1008.6 |
| 20260504032518 | 59 | 34 | 7.0 | 11.3 | 0.00 | 0.00 | 0.00 | 36 | 1008.6 |
| 20260504032015 | 59 | 31 | 6.1 | 8.7 | 0.00 | 0.00 | 0.00 | 36 | 1008.6 |
| 20260504031544 | 60 | 32 | 5.2 | 11.3 | 0.00 | 0.00 | 0.00 | 35 | 1008.6 |
| 20260504031013 | 60 | 33 | 7.0 | 12.2 | 0.00 | 0.00 | 0.00 | 35 | 1008.6 |
| 20260504030512 | 60 | 32 | 8.7 | 12.2 | 0.00 | 0.00 | 0.00 | 35 | 1008.6 |
| 20260504030040 | 60 | 28 | 7.8 | 11.3 | 0.00 | 0.00 | 0.00 | 34 | 1008.6 |
| 20260504025510 | 61 | 38 | 7.8 | 13.0 | 0.00 | 0.00 | 0.00 | 34 | 1008.6 |
| 20260504025014 | 61 | 24 | 9.6 | 13.9 | 0.00 | 0.00 | 0.00 | 33 | 1008.6 |
| 20260504024544 | 62 | 37 | 10.4 | 16.5 | 0.00 | 0.00 | 0.00 | 32 | 1008.5 |
| 20260504024014 | 62 | 38 | 10.4 | 17.4 | 0.00 | 0.00 | 0.00 | 32 | 1008.5 |
| 20260504023512 | 62 | 43 | 12.2 | 19.1 | 0.00 | 0.00 | 0.00 | 32 | 1008.3 |
| 20260504023048 | 63 | 28 | 13.0 | 19.1 | 0.00 | 0.00 | 0.00 | 31 | 1008.3 |
| 20260504022509 | 63 | 31 | 11.3 | 16.5 | 0.00 | 0.00 | 0.00 | 31 | 1008.2 |
| 20260504022014 | 63 | 32 | 11.3 | 16.5 | 0.00 | 0.00 | 0.00 | 30 | 1008.2 |
| 20260504021542 | 64 | 30 | 12.2 | 16.5 | 0.00 | 0.00 | 0.00 | 30 | 1007.9 |
| 20260504021012 | 64 | 35 | 12.2 | 17.4 | 0.00 | 0.00 | 0.00 | 30 | 1008.0 |
| 20260504020511 | 65 | 35 | 12.2 | 20.9 | 0.00 | 0.00 | 0.00 | 30 | 1008.0 |
| 20260504020043 | 65 | 46 | 12.2 | 20.9 | 0.00 | 0.00 | 0.00 | 29 | 1008.0 |
| 20260504015512 | 66 | 17 | 11.3 | 17.4 | 0.00 | 0.00 | 0.00 | 28 | 1007.9 |
| 20260504015011 | 66 | 29 | 12.2 | 22.6 | 0.00 | 0.00 | 0.00 | 27 | 1008.0 |
| 20260504014539 | 67 | 28 | 12.2 | 22.6 | 0.00 | 0.00 | 0.00 | 26 | 1007.8 |
| 20260504014013 | 67 | 15 | 14.8 | 21.7 | 0.00 | 0.00 | 0.00 | 26 | 1007.8 |
| 20260504013511 | 68 | 23 | 14.8 | 21.7 | 0.00 | 0.00 | 0.00 | 26 | 1007.9 |
| 20260504013040 | 69 | 17 | 15.6 | 20.9 | 0.00 | 0.00 | 0.00 | 25 | 1008.0 |
| 20260504012511 | 70 | 13 | 14.8 | 20.0 | 0.00 | 0.00 | 0.00 | 22 | 1007.6 |
| 20260504012013 | 70 | 15 | 14.8 | 20.9 | 0.00 | 0.00 | 0.00 | 23 | 1007.7 |
| 20260504011538 | 70 | 5 | 16.5 | 22.6 | 0.00 | 0.00 | 0.00 | 23 | 1007.6 |
| 20260504011011 | 71 | 13 | 14.8 | 22.6 | 0.00 | 0.00 | 0.00 | 23 | 1007.8 |
| 20260504010507 | 71 | 17 | 13.0 | 20.9 | 0.00 | 0.00 | 0.00 | 24 | 1007.6 |
| 20260504010037 | 71 | 5 | 12.2 | 20.0 | 0.00 | 0.00 | 0.00 | 24 | 1007.7 |
| 20260504005511 | 71 | 350 | 13.9 | 18.2 | 0.00 | 0.00 | 0.00 | 24 | 1007.7 |
| 20260504005013 | 71 | 338 | 13.0 | 20.0 | 0.00 | 0.00 | 0.00 | 24 | 1007.6 |
| 20260504004544 | 72 | 5 | 14.8 | 20.0 | 0.00 | 0.00 | 0.00 | 23 | 1007.6 |
| 20260504004011 | 72 | 352 | 13.9 | 20.0 | 0.00 | 0.00 | 0.00 | 22 | 1007.6 |
| 20260504003515 | 72 | 352 | 15.6 | 20.0 | 0.00 | 0.00 | 0.00 | 22 | 1007.7 |
| 20260504003043 | 72 | 360 | 14.8 | 23.5 | 0.00 | 0.00 | 0.00 | 22 | 1007.9 |
| 20260504002511 | 72 | 345 | 13.0 | 23.5 | 0.00 | 0.00 | 0.00 | 23 | 1008.1 |
| 20260504002010 | 72 | 343 | 15.6 | 23.5 | 0.00 | 0.00 | 0.00 | 22 | 1007.9 |
| 20260504001544 | 72 | 305 | 16.5 | 24.3 | 0.00 | 0.00 | 0.00 | 22 | 1007.7 |
| 20260504001013 | 73 | 331 | 17.4 | 23.5 | 0.00 | 0.00 | 0.00 | 21 | 1007.8 |
| 20260504000513 | 73 | 342 | 13.0 | 21.7 | 0.00 | 0.00 | 0.00 | 23 | 1007.9 |
| 20260504000111 | 73 | 352 | 11.3 | 20.9 | 0.00 | 0.00 | 0.00 | 24 | 1008.1 |
| 20260503235514 | 73 | 352 | 14.8 | 21.7 | 0.00 | 0.00 | 0.00 | 23 | 1008.0 |
| 20260503235013 | 73 | 14 | 13.9 | 21.7 | 0.00 | 0.00 | 0.00 | 24 | 1008.1 |
| 20260503234549 | 73 | 341 | 15.6 | 23.5 | 0.00 | 0.00 | 0.00 | 23 | 1008.1 |
| 20260503234011 | 73 | 318 | 13.0 | 21.7 | 0.00 | 0.00 | 0.00 | 23 | 1008.2 |
| 20260503233514 | 73 | 348 | 14.8 | 19.1 | 0.00 | 0.00 | 0.00 | 22 | 1008.2 |
| 20260503233038 | 73 | 344 | 13.9 | 22.6 | 0.00 | 0.00 | 0.00 | 23 | 1008.1 |
| 20260503232512 | 73 | 320 | 13.9 | 22.6 | 0.00 | 0.00 | 0.00 | 23 | 1007.8 |
| 20260503232013 | 73 | 347 | 15.6 | 26.1 | 0.00 | 0.00 | 0.00 | 22 | 1008.0 |
| 20260503231537 | 73 | 320 | 15.6 | 26.1 | 0.00 | 0.00 | 0.00 | 22 | 1008.3 |
| 20260503231011 | 74 | 335 | 17.4 | 23.5 | 0.00 | 0.00 | 0.00 | 22 | 1008.0 |
| 20260503230514 | 74 | 317 | 11.3 | 24.3 | 0.00 | 0.00 | 0.00 | 22 | 1008.2 |
| 20260503230044 | 74 | 335 | 17.4 | 24.3 | 0.00 | 0.00 | 0.00 | 22 | 1008.0 |
| 20260503225509 | 74 | 339 | 10.4 | 20.9 | 0.00 | 0.00 | 0.00 | 25 | 1008.5 |
| 20260503225012 | 73 | 344 | 13.0 | 21.7 | 0.00 | 0.00 | 0.00 | 22 | 1008.4 |
| 20260503224536 | 73 | 337 | 16.5 | 23.5 | 0.00 | 0.00 | 0.00 | 22 | 1008.3 |
| 20260503224011 | 74 | 352 | 16.5 | 21.7 | 0.00 | 0.00 | 0.00 | 22 | 1008.3 |
| 20260503223514 | 74 | 345 | 13.9 | 26.1 | 0.00 | 0.00 | 0.00 | 24 | 1008.4 |
| 20260503223041 | 73 | 341 | 13.9 | 26.1 | 0.00 | 0.00 | 0.00 | 22 | 1008.6 |
| 20260503222510 | 74 | 345 | 14.8 | 22.6 | 0.00 | 0.00 | 0.00 | 22 | 1008.5 |
| 20260503222013 | 74 | 313 | 11.3 | 22.6 | 0.00 | 0.00 | 0.00 | 23 | 1008.7 |
| 20260503221548 | 74 | 318 | 18.2 | 22.6 | 0.00 | 0.00 | 0.00 | 22 | 1008.6 |
| 20260503221015 | 74 | 321 | 14.8 | 22.6 | 0.00 | 0.00 | 0.00 | 22 | 1008.8 |
| 20260503220514 | 74 | 340 | 13.0 | 20.0 | 0.00 | 0.00 | 0.00 | 23 | 1009.0 |
| 20260503220045 | 74 | 323 | 11.3 | 17.4 | 0.00 | 0.00 | 0.00 | 22 | 1009.0 |
| 20260503215512 | 74 | 315 | 13.0 | 20.9 | 0.00 | 0.00 | 0.00 | 24 | 1009.0 |
| 20260503215014 | 74 | 315 | 14.8 | 20.9 | 0.00 | 0.00 | 0.00 | 23 | 1009.2 |
| 20260503214544 | 73 | 321 | 11.3 | 18.2 | 0.00 | 0.00 | 0.00 | 22 | 1009.2 |
| 20260503214017 | 74 | 311 | 11.3 | 20.0 | 0.00 | 0.00 | 0.00 | 22 | 1009.3 |
| 20260503213516 | 74 | 351 | 13.0 | 22.6 | 0.00 | 0.00 | 0.00 | 22 | 1009.4 |
| 20260503213042 | 73 | 338 | 13.9 | 23.5 | 0.00 | 0.00 | 0.00 | 24 | 1009.6 |
| 20260503212513 | 73 | 352 | 15.6 | 23.5 | 0.00 | 0.00 | 0.00 | 22 | 1009.6 |
| 20260503212014 | 73 | 298 | 13.9 | 23.5 | 0.00 | 0.00 | 0.00 | 22 | 1009.7 |
| 20260503211540 | 73 | 317 | 10.4 | 16.5 | 0.00 | 0.00 | 0.00 | 24 | 1009.8 |
| 20260503211011 | 73 | 342 | 10.4 | 19.1 | 0.00 | 0.00 | 0.00 | 24 | 1009.7 |
| 20260503210515 | 73 | 322 | 13.0 | 19.1 | 0.00 | 0.00 | 0.00 | 23 | 1009.8 |
| 20260503210039 | 73 | 342 | 13.0 | 20.0 | 0.00 | 0.00 | 0.00 | 22 | 1009.8 |
| 20260503205512 | 74 | 329 | 15.6 | 20.9 | 0.00 | 0.00 | 0.00 | 21 | 1009.9 |
| 20260503205015 | 73 | 299 | 13.9 | 20.0 | 0.00 | 0.00 | 0.00 | 23 | 1010.1 |
| 20260503204538 | 72 | 350 | 8.7 | 20.9 | 0.00 | 0.00 | 0.00 | 22 | 1010.2 |
| 20260503204014 | 73 | 310 | 12.2 | 21.7 | 0.00 | 0.00 | 0.00 | 21 | 1010.1 |
| 20260503203515 | 73 | 333 | 16.5 | 21.7 | 0.00 | 0.00 | 0.00 | 21 | 1010.0 |
| 20260503203056 | 72 | 307 | 12.2 | 20.0 | 0.00 | 0.00 | 0.00 | 22 | 1010.1 |
| 20260503202511 | 73 | 338 | 13.9 | 22.6 | 0.00 | 0.00 | 0.00 | 21 | 1010.1 |
| 20260503202015 | 73 | 326 | 13.9 | 22.6 | 0.00 | 0.00 | 0.00 | 21 | 1009.9 |
| 20260503201537 | 72 | 327 | 12.2 | 17.4 | 0.00 | 0.00 | 0.00 | 22 | 1010.2 |
| 20260503201014 | 73 | 321 | 12.2 | 20.0 | 0.00 | 0.00 | 0.00 | 23 | 1010.3 |
| 20260503200512 | 73 | 288 | 13.9 | 20.0 | 0.00 | 0.00 | 0.00 | 24 | 1010.3 |
| 20260503200044 | 72 | 323 | 13.0 | 18.2 | 0.00 | 0.00 | 0.00 | 23 | 1010.3 |
| 20260503195513 | 72 | 315 | 9.6 | 20.9 | 0.00 | 0.00 | 0.00 | 26 | 1010.7 |
| 20260503195012 | 72 | 352 | 12.2 | 22.6 | 0.00 | 0.00 | 0.00 | 22 | 1010.6 |
| 20260503194525 | 72 | 360 | 15.6 | 22.6 | 0.00 | 0.00 | 0.00 | 22 | 1010.3 |
| 20260503194009 | 72 | 352 | 13.9 | 20.9 | 0.00 | 0.00 | 0.00 | 23 | 1010.9 |
| 20260503193515 | 72 | 349 | 10.4 | 17.4 | 0.00 | 0.00 | 0.00 | 25 | 1011.1 |
| 20260503193039 | 72 | 346 | 13.0 | 17.4 | 0.00 | 0.00 | 0.00 | 24 | 1010.9 |
| 20260503192514 | 71 | 295 | 11.3 | 17.4 | 0.00 | 0.00 | 0.00 | 23 | 1011.1 |
| 20260503192015 | 71 | 328 | 13.9 | 17.4 | 0.00 | 0.00 | 0.00 | 22 | 1011.1 |
| 20260503191541 | 72 | 304 | 11.3 | 19.1 | 0.00 | 0.00 | 0.00 | 21 | 1011.4 |
| 20260503191015 | 71 | 323 | 13.0 | 19.1 | 0.00 | 0.00 | 0.00 | 25 | 1011.3 |
| 20260503190520 | 70 | 304 | 10.4 | 17.4 | 0.00 | 0.00 | 0.00 | 25 | 1011.4 |
| 20260503190045 | 71 | 346 | 13.0 | 20.0 | 0.00 | 0.00 | 0.00 | 23 | 1011.4 |
| 20260503185515 | 71 | 330 | 13.9 | 20.9 | 0.00 | 0.00 | 0.00 | 23 | 1011.6 |
| 20260503185013 | 71 | 319 | 13.9 | 20.9 | 0.00 | 0.00 | 0.00 | 22 | 1011.6 |
| 20260503184543 | 72 | 325 | 12.2 | 17.4 | 0.00 | 0.00 | 0.00 | 24 | 1011.6 |
| 20260503184010 | 71 | 319 | 13.0 | 19.1 | 0.00 | 0.00 | 0.00 | 24 | 1011.7 |
| 20260503183517 | 71 | 334 | 13.0 | 19.1 | 0.00 | 0.00 | 0.00 | 22 | 1011.5 |
| 20260503183046 | 71 | 317 | 12.2 | 18.2 | 0.00 | 0.00 | 0.00 | 22 | 1011.5 |
| 20260503182516 | 70 | 338 | 9.6 | 17.4 | 0.00 | 0.00 | 0.00 | 25 | 1011.7 |
| 20260503182012 | 71 | 323 | 12.2 | 20.0 | 0.00 | 0.00 | 0.00 | 24 | 1011.7 |
| 20260503181541 | 71 | 339 | 15.6 | 20.0 | 0.00 | 0.00 | 0.00 | 22 | 1011.7 |
| 20260503181015 | 70 | 343 | 13.9 | 20.0 | 0.00 | 0.00 | 0.00 | 22 | 1011.9 |
| 20260503180513 | 70 | 348 | 13.0 | 20.0 | 0.00 | 0.00 | 0.00 | 23 | 1011.9 |
| 20260503180043 | 70 | 338 | 11.3 | 18.2 | 0.00 | 0.00 | 0.00 | 26 | 1011.9 |
| 20260503175509 | 70 | 352 | 12.2 | 17.4 | 0.00 | 0.00 | 0.00 | 23 | 1011.9 |
| 20260503175015 | 70 | 329 | 12.2 | 19.1 | 0.00 | 0.00 | 0.00 | 23 | 1012.0 |
| 20260503174540 | 70 | 338 | 13.9 | 20.9 | 0.00 | 0.00 | 0.00 | 23 | 1012.1 |
| 20260503174016 | 70 | 346 | 13.9 | 20.9 | 0.00 | 0.00 | 0.00 | 25 | 1012.1 |
| 20260503173510 | 70 | 352 | 13.9 | 17.4 | 0.00 | 0.00 | 0.00 | 25 | 1012.2 |
| 20260503173055 | 69 | 5 | 13.0 | 19.1 | 0.00 | 0.00 | 0.00 | 26 | 1012.3 |
| 20260503172514 | 69 | 346 | 11.3 | 19.1 | 0.00 | 0.00 | 0.00 | 27 | 1012.3 |
| 20260503172019 | 68 | 347 | 11.3 | 16.5 | 0.00 | 0.00 | 0.00 | 26 | 1012.3 |
| 20260503171547 | 69 | 320 | 13.0 | 16.5 | 0.00 | 0.00 | 0.00 | 26 | 1012.3 |
| 20260503171018 | 68 | 321 | 11.3 | 15.6 | 0.00 | 0.00 | 0.00 | 27 | 1012.5 |
| 20260503170516 | 67 | 336 | 10.4 | 14.8 | 0.00 | 0.00 | 0.00 | 28 | 1012.4 |
| 20260503150514 | 59 | 344 | 0.0 | 3.5 | 0.00 | 0.00 | 0.00 | 51 | 1013.5 |
| 20260503131013 | 41 | 102 | 0.9 | 1.7 | 0.00 | 0.00 | 0.00 | 85 | 1013.7 |
| 20260503130519 | 40 | 102 | 0.9 | 1.7 | 0.00 | 0.00 | 0.00 | 86 | 1013.7 |
| 20260503110513 | 35 | 191 | 0.9 | 1.7 | 0.00 | 0.00 | 0.00 | 89 | 1014.5 |
| 20260503090512 | 35 | 275 | 2.6 | 3.5 | 0.00 | 0.00 | 0.00 | 81 | 1015.3 |
| 20260503081538 | 38 | 312 | 1.7 | 3.5 | 0.00 | 0.00 | 0.00 | 77 | 1015.9 |
| 20260503081013 | 37 | 317 | 1.7 | 5.2 | 0.00 | 0.00 | 0.00 | 77 | 1015.9 |
| 20260503080512 | 37 | 323 | 3.5 | 5.2 | 0.00 | 0.00 | 0.00 | 77 | 1015.8 |
| 20260503072512 | 39 | 275 | 0.9 | 2.6 | 0.00 | 0.00 | 0.00 | 72 | 1016.1 |
| 20260503072012 | 39 | 275 | 1.7 | 3.5 | 0.00 | 0.00 | 0.00 | 72 | 1016.0 |
| 20260503071546 | 39 | 275 | 1.7 | 2.6 | 0.00 | 0.00 | 0.00 | 71 | 1016.2 |
| 20260503071011 | 39 | 275 | 1.7 | 2.6 | 0.00 | 0.00 | 0.00 | 71 | 1016.2 |
| 20260503070514 | 39 | 275 | 1.7 | 3.5 | 0.00 | 0.00 | 0.00 | 72 | 1016.3 |
| 20260503055013 | 40 | 38 | 1.7 | 3.5 | 0.00 | 0.00 | 0.00 | 69 | 1016.1 |
| 20260503054541 | 40 | 38 | 1.7 | 3.5 | 0.00 | 0.00 | 0.00 | 68 | 1016.2 |
| 20260503054012 | 41 | 38 | 1.7 | 3.5 | 0.00 | 0.00 | 0.00 | 67 | 1016.1 |
| 20260503053514 | 41 | 38 | 1.7 | 2.6 | 0.00 | 0.00 | 0.00 | 66 | 1016.2 |
| 20260503053040 | 42 | 38 | 0.9 | 2.6 | 0.00 | 0.00 | 0.00 | 67 | 1016.1 |
| 20260503052513 | 42 | 38 | 0.9 | 2.6 | 0.00 | 0.00 | 0.00 | 66 | 1016.2 |
| 20260503052012 | 43 | 38 | 0.9 | 1.7 | 0.00 | 0.00 | 0.00 | 64 | 1016.3 |
| 20260503051535 | 44 | 38 | 0.0 | 0.0 | 0.00 | 0.00 | 0.00 | 63 | 1016.2 |
| 20260503051013 | 44 | 38 | 0.0 | 0.9 | 0.00 | 0.00 | 0.00 | 62 | 1016.2 |
| 20260503050513 | 45 | 38 | 0.0 | 1.7 | 0.00 | 0.00 | 0.00 | 62 | 1016.5 |
| 20260503050043 | 45 | 38 | 0.0 | 2.6 | 0.00 | 0.00 | 0.00 | 61 | 1016.5 |
| 20260503045514 | 46 | 38 | 0.9 | 3.5 | 0.00 | 0.00 | 0.00 | 61 | 1016.4 |
| 20260503045012 | 47 | 38 | 2.6 | 3.5 | 0.00 | 0.00 | 0.00 | 58 | 1016.2 |
| 20260503044544 | 48 | 38 | 0.0 | 1.7 | 0.00 | 0.00 | 0.00 | 57 | 1016.1 |
| 20260503044012 | 49 | 38 | 0.0 | 0.0 | 0.00 | 0.00 | 0.00 | 54 | 1016.5 |
| 20260503043512 | 51 | 38 | 0.0 | 1.7 | 0.00 | 0.00 | 0.00 | 51 | 1016.4 |
| 20260503043043 | 52 | 38 | 0.0 | 1.7 | 0.00 | 0.00 | 0.00 | 50 | 1016.2 |
| 20260503042512 | 53 | 38 | 0.9 | 1.7 | 0.00 | 0.00 | 0.00 | 48 | 1016.3 |
| 20260503042015 | 53 | 38 | 0.9 | 1.7 | 0.00 | 0.00 | 0.00 | 48 | 1016.3 |
| 20260503041550 | 53 | 38 | 0.0 | 1.7 | 0.00 | 0.00 | 0.00 | 48 | 1016.5 |
| 20260503041014 | 53 | 38 | 0.9 | 1.7 | 0.00 | 0.00 | 0.00 | 49 | 1016.4 |
| 20260503040514 | 52 | 38 | 0.0 | 1.7 | 0.00 | 0.00 | 0.00 | 50 | 1016.2 |
| 20260503040047 | 53 | 38 | 0.0 | 2.6 | 0.00 | 0.00 | 0.00 | 51 | 1016.3 |